This is the latest recevied weather packets stored in our database for station/object KI7JYE. If no packets are shown the sender has not sent any weather packets the latest 10 day(s).
| Time | Temp. | Humidity | Pressure | Rain* | Wind** | Luminosity | Snow |
|---|---|---|---|---|---|---|---|
| 1777879810 | 17.78° C | 65% | 1006.9 hPa | 0 mm | - | 0 W/m² | - |
| 1777879508 | 17.78° C | 65% | 1007.2 hPa | 0 mm | - | 0 W/m² | - |
| 1777879204 | 17.78° C | 64% | 1007.1 hPa | 0 mm | - | 0 W/m² | - |
| 1777878901 | 17.78° C | 64% | 1006.9 hPa | 0 mm | - | 0 W/m² | - |
| 1777878598 | 18.33° C | 63% | 1006.9 hPa | 0 mm | - | 0 W/m² | - |
| 1777878296 | 17.78° C | 62% | 1006.9 hPa | 0 mm | - | 0 W/m² | - |
| 1777877990 | 18.33° C | 62% | 1006.7 hPa | 0 mm | - | 0 W/m² | - |
| 1777877688 | 18.33° C | 60% | 1006.7 hPa | 0 mm | - | 0 W/m² | - |
| 1777877385 | 18.89° C | 59% | 1006.9 hPa | 0 mm | - | 0 W/m² | - |
| 1777877082 | 19.44° C | 58% | 1006.7 hPa | 0 mm | - | 0 W/m² | - |
| 1777876779 | 20° C | 57% | 1006.8 hPa | 0 mm | - | 0 W/m² | - |
| 1777876477 | 20° C | 56% | 1006.7 hPa | 0 mm | - | 0 W/m² | - |
| 1777876173 | 20.56° C | 54% | 1006.7 hPa | 0 mm | - | 0 W/m² | - |
| 1777875870 | 21.67° C | 51% | 1006.5 hPa | 0 mm | - | 0 W/m² | - |
| 1777875565 | 21.67° C | 49% | 1006.6 hPa | 0 mm | - | 0 W/m² | - |
| 1777875262 | 22.22° C | 47% | 1006.6 hPa | 0 mm | - | 0 W/m² | - |
| 1777874960 | 22.22° C | 47% | 1006.5 hPa | 0 mm | - | 0 W/m² | - |
| 1777874655 | 22.78° C | 46% | 1006.5 hPa | 0 mm | - | 0 W/m² | - |
| 1777874352 | 22.78° C | 45% | 1006.3 hPa | 0 mm | - | 0 W/m² | - |
| 1777874050 | 23.89° C | 43% | 1006.6 hPa | 0 mm | - | 0 W/m² | - |
| 1777873748 | 25° C | 39% | 1006.7 hPa | 0 mm | - | 0 W/m² | - |
| 1777873444 | 25° C | 36% | 1006.5 hPa | 0 mm | - | 0 W/m² | - |
| 1777873141 | 25.56° C | 36% | 1006.4 hPa | 0 mm | - | 0 W/m² | - |
| 1777872838 | 25.56° C | 36% | 1006.2 hPa | 0 mm | - | 0 W/m² | - |
| 1777872535 | 25.56° C | 36% | 1006.2 hPa | 0 mm | - | 0 W/m² | - |
* Rain latest hour (hover to see other rain measurements)
** Current wind speed in m/s (hover to see current wind gust speed)